Location: Unspecified
(0.0000°N, 0.0000°E)
Time: 20:17:43
(UTC+00:00)

Hubble Space Telescope - Pass Details

Date: 28 March 2023
Orbit: 527 x 530 km, 28.5° (Epoch: 30 March)

Event Time Altitude Azimuth Distance (km) Brightness Sun altitude
Rises 18:30:56 0° 268° (W) 2,649 6.9 -6.5°
Reaches altitude 10° 18:33:44 10° 287° (WNW) 1,759 5.0 -7.2°
Maximum altitude 18:36:35 18° 331° (NNW) 1,316 3.2 -7.9°
Drops below altitude 10° 18:39:26 10° 16° (NNE) 1,756 3.3 -8.6°
Sets 18:42:14 0° 35° (NE) 2,643 4.0 -9.3°
